Flight Track Log - Related Links

Times and Time Zones

All times are in EDT time to prevent confusion due to time zone crossing. See the SKW5631 flight status page for this flight to view local times or setup timezone preferences in your user account.

Time Position Orientation Groundspeed Altitude Reporting Facility
EDT Latitude Longitude Course Direction KTS MPH feet Rate Location/Type
Sat 10:22:46 PM 37.6719 -122.3669 133° Southeast 171 197 2,300  Level Oakland Center
Sat 10:23:57 PM 37.6500 -122.4333 247° West 215 247 5,200 2,448 Climbing Northern Cal TRACON
Sat 10:24:51 PM 37.6000 -122.4667 208° Southwest 233 268 7,400 2,526 Climbing Northern Cal TRACON
Sat 10:25:51 PM 37.5500 -122.5000 208° Southwest 249 287 10,000 2,186 Climbing Northern Cal TRACON
Sat 10:26:00 PM 37.2618 -122.1010 130° Southeast  Level FlightAware Approximate
Sat 10:26:49 PM 37.4950 -122.4689 156° South 242 278 11,700  Level Oakland Center
Sat 10:27:00 PM 37.1684 -121.9801 133° Southeast  Level FlightAware Approximate
Sat 10:27:50 PM 37.4256 -122.3919 139° Southeast 276 318 13,400  Level Oakland Center
Sat 10:28:51 PM 37.3558 -122.3131 138° Southeast 334 384 14,400 984 Climbing Oakland Center
Sat 10:29:52 PM 37.2806 -122.2292 138° Southeast 360 414 15,400 984 Climbing Oakland Center
Sat 10:30:53 PM 37.2000 -122.1392 138° Southeast 385 443 16,400 984 Climbing Oakland Center
Sat 10:31:54 PM 37.1197 -122.0486 138° Southeast 390 449 17,400 1,033 Climbing Oakland Center
Sat 10:32:55 PM 37.0361 -121.9553 138° Southeast 401 461 18,500 1,033 Climbing Oakland Center
Sat 10:33:56 PM 36.9528 -121.8625 138° Southeast 403 464 19,500 984 Climbing Oakland Center
Sat 10:34:57 PM 36.8661 -121.7711 140° Southeast 408 470 20,500 1,033 Climbing Oakland Center
Sat 10:35:58 PM 36.7761 -121.6703 138° Southeast 405 466 21,600 1,033 Climbing Oakland Center
Sat 10:36:59 PM 36.6922 -121.5750 138° Southeast 408 470 22,600 1,041 Climbing Oakland Center
Sat 10:37:59 PM 36.6186 -121.4653 130° Southeast 408 470 23,700 1,041 Climbing Oakland Center
Sat 10:39:00 PM 36.5483 -121.3519 128° Southeast 414 476 24,700 836 Climbing Oakland Center
Sat 10:40:01 PM 36.4783 -121.2411 128° Southeast 410 472 25,400 590 Climbing Oakland Center
Sat 10:41:02 PM 36.3853 -121.1522 142° Southeast 419 482 25,900 492 Climbing Oakland Center
Sat 10:42:03 PM 36.2944 -121.0581 140° Southeast 425 489 26,400 492 Climbing Oakland Center
Sat 10:43:04 PM 36.2019 -120.9644 141° Southeast 429 494 26,900 295 Climbing Oakland Center
Sat 10:44:05 PM 36.1067 -120.8711 142° Southeast 434 499 27,000 49 Climbing Oakland Center
Sat 10:45:06 PM 36.0106 -120.7733 141° Southeast 446 513 27,000  Level Oakland Center
Sat 10:46:06 PM 35.8936 -120.6558 141° Southeast 450 518 27,000  Level Oakland Center
Sat 10:47:07 PM 35.7958 -120.5575 141° Southeast 453 521 27,000  Level Oakland Center
Sat 10:48:08 PM 35.6964 -120.4583 141° Southeast 457 526 27,000  Level Oakland Center
Sat 10:49:25 PM 35.5722 -120.3367 141° Southeast 453 521 27,000  Level Los Angeles Center
Sat 10:50:26 PM 35.4731 -120.2378 141° Southeast 456 525 27,000  Level Los Angeles Center
Sat 10:51:27 PM 35.3728 -120.1397 141° Southeast 461 531 27,000  Level Los Angeles Center
Sat 10:52:28 PM 35.2744 -120.0425 141° Southeast 457 526 27,000  Level Los Angeles Center
Sat 10:53:30 PM 35.1750 -119.9444 141° Southeast 457 526 27,000  Level Los Angeles Center
Sat 10:54:31 PM 35.0769 -119.8458 141° Southeast 458 527 27,000  Level Los Angeles Center
Sat 10:55:45 PM 34.9769 -119.7067 131° Southeast 454 522 27,000  Level Los Angeles Center
Sat 10:56:46 PM 34.8917 -119.5928 132° Southeast 455 524 27,000 -1,230 Level Los Angeles Center
Sat 10:57:47 PM 34.8078 -119.4803 132° Southeast 449 517 24,500 -3,415 Descending Los Angeles Center
Sat 10:58:49 PM 34.7144 -119.3564 132° Southeast 418 481 20,000 -4,049 Descending Los Angeles Center
Sat 10:59:50 PM 34.6439 -119.2606 132° Southeast 388 447 16,200 -3,393 Descending Los Angeles Center
Sat 11:00:51 PM 34.5722 -119.1672 133° Southeast 368 423 13,100 -2,328 Descending Los Angeles Center
Sat 11:02:04 PM 34.5119 -119.0875 133° Southeast 325 374 11,000 -1,022 Descending Los Angeles Center
Sat 11:03:06 PM 34.4464 -118.9997 132° Southeast 292 336 10,800 -732 Descending Los Angeles Center
Sat 11:04:07 PM 34.3992 -118.9239 127° Southeast 277 319 9,500 -1,415 Descending Los Angeles Center
Sat 11:05:09 PM 34.3525 -118.8481 127° Southeast 276 318 7,900 -1,512 Descending Los Angeles Center
Sat 11:06:10 PM 34.3036 -118.7750 129° Southeast 279 321 6,400 -1,328 Descending Los Angeles Center
Sat 11:07:11 PM 34.2653 -118.7125 127° Southeast 286 329 5,200 -836 Descending Los Angeles Center
Sat 11:08:12 PM 34.2169 -118.6364 128° Southeast 241 277 4,700 -537 Descending Los Angeles Center
Sat 11:09:14 PM 34.2003 -118.5758 108° East 204 235 4,100 -581 Descending Los Angeles Center

Login

Don't have an account? Register now (free) for customized features, flight alerts, and more!